Weather in Yangiyo'l

Uzbekistan     41°24′01″N   69°22′03″E
temp.,
°C
wind,
m/s
gust,
m/s
humid.,
%
clouds,
%
prec.,
mm/h
press.,
hPa
HPBL,
m
15 may, sat
sat1523:00+17ne35540 0.0 1010119
02:00+16ene23530 0.0 1010103
05:00+15se49500 0.0 1011264
08:00+19sse58390 0.0 1012571
11:00+24s34280 0.0 10121105
14:00+27nne11230 0.0 10111707
17:00+27n32270 0.0 10091852
20:00+21nne34480 0.0 1010122
16 may, sun
sun1623:00+19e22530 0.0 101050
02:00+18e22550 0.0 100947
05:00+17ese23560 0.0 101055
08:00+21sse45370 0.0 1012397
11:00+26s23250 0.0 10121225
14:00+30w11170 0.0 10102023
17:00+29n32180 0.0 10092183
20:00+22nne35500 0.0 1010126
17 may, mon
mon1723:00+20e34330 0.0 101066
02:00+19e46330 0.0 101084
05:00+18e36330 0.0 101177
08:00+24se34290 0.0 1012269
11:00+30ssw22180 0.0 10121328
14:00+32nnw22130 0.0 10113496
17:00+31nne43160 0.0 10092775
20:00+24ne47380 0.0 1010121
18 may, tue
tue1823:00+22ene34330 0.0 101066
02:00+20ene34311 0.0 101069
05:00+20e343096 0.0 101062
08:00+25e342679 0.0 1010207
11:00+31ssw01154 0.0 10092394
14:00+33wnw14113 0.0 10074373
17:00+32nnw34123 0.0 10063482
20:00+25ne35297 0.0 100789
19 may, wed
wed1923:00+23ese34263 0.0 100871
02:00+21e35280 0.0 100778
05:00+21ene352535 0.0 100775
08:00+26e22242 0.0 1008233
11:00+32s11161 0.0 10071197
14:00+34wsw15126 0.0 10054779
17:00+32nw651594 0.0 10053200
20:00+22ne6113743 0.2 1007196